Location: Newark
(52.2090°N, 4.1550°W)
Time: 03:22:43
(UTC+00:00)

Courier 1B - All Passes

Search period start: 24 October 2019 00:00
Search period end: 03 November 2019 00:00
Orbit: 962 x 1209 km, 28.3° (Epoch: 23 October)

Date Brightness Start Highest point End Pass type
(mag) Time Alt. Az. Time Alt. Az. Time Alt. Az.
24 Oct - 18:08:51 10° S 18:10:11 10° S 18:11:31 10° SSE visible
26 Oct - 18:14:55 10° S 18:15:43 10° S 18:16:31 10° S visible
27 Oct - 17:21:05 10° S 17:22:15 10° S 17:23:26 10° S daylight
28 Oct - 16:28:27 10° S 16:28:48 10° S 16:29:10 10° S daylight
